www.pogodaiklimat.ru

АРХИВ ПОГОДЫ в Новом Орлеане

Время (UTC), дата Ветер
(напр.,м/с)
 
Видим.   Явления Облачность Т
(С)
Тd
(С)
f
(%)
Тe
(С)
Тes
(С)
Комфортность

P
(гПа)

Po
(гПа)
Тmin
(С)
Tmax
(С)
R
(мм)
SD
(см)
00:53 27.09 Ю  16 км    ясно  +26.0  +23.0  84  +35  +35  очень
душно 
1016.2  1016.6  +25.0  +26.7  0.8   
01:53 27.09 ЮЗ  16 км    ясно  +25.6  +23.9  90  +35  +35  очень
душно 
1015.8  1016.2  +25.0  +26.7  0.8   
02:53 27.09 Ю  16 км    ясно  +26.0  +23.0  84  +35  +35  очень
душно 
1015.9  1016.2  +25.0  +26.7  0.8   
03:53 27.09 Ю  16 км    ясно  +25.0  +24.0  94  +34  +34  очень
душно 
1015.1  1015.6  +25.0  +26.7  0.8   
04:53 27.09 ЮЗ  16 км    ясно  +25.6  +23.9  90  +35  +35  очень
душно 
1014.8  1015.2  +25.0  +26.7  0.8   
05:53 27.09 ЮЗ  16 км    ясно  +26.0  +23.0  84  +35  +35  очень
душно 
1014.4  1014.9  +25.0  +26.1     
06:53 27.09 ЮЗ  16 км    ясно  +26.0  +23.0  84  +35  +35  очень
душно 
1013.9  1014.2  +25.0  +26.1     
07:53 27.09 Ю  16 км    ясно  +25.0  +23.3  90  +33  +33  очень
душно 
1013.5  1013.9  +25.0  +26.1     
08:53 27.09 Ю  16 км    ясно  +25.0  +23.0  89  +33  +33  очень
душно 
1014.0  1014.2  +25.0  +26.1     
09:53 27.09 Ю  16 км    ясно  +25.0  +23.0  89  +33  +33  очень
душно 
1014.5  1014.9  +25.0  +26.1     
10:53 27.09 ЮЗ  16 км    10/10 м
[средняя] 
+26.1  +23.3  85  +35  +35  очень
душно 
1014.5  1014.9  +25.0  +26.1     
11:53 27.09 ЮЗ  16 км    10/10 м
[средняя] 
+26.0  +23.0  84  +35  +35  очень
душно 
1014.7  1015.2  +25.6  +27.8     
13:34 27.09 З  16 км    10/10 м
[средняя] 
+27.0  +24.0  84  +37  +37  очень
душно 
1015.4  1015.6  +25.6  +27.8     
14:20 27.09 СЗ  2 км    10/10 м
[средняя] 
+26.0  +24.0  89  +36  +36  очень
душно 
1015.8  1016.2  +25.6  +27.8  7.1   
15:43 27.09 З  16 км    10/10 м
[средняя] 
+26.0  +23.0  84  +35  +35  очень
душно 
1015.9  1016.2  +25.6  +27.8  7.1   
16:53 27.09 ЮЗ  6 км    10/10 м
[средняя] 
+26.1  +22.8  82  +35  +35  очень
душно 
1015.6  1015.9  +25.6  +27.8  7.1   
17:53 27.09 Ю  16 км    10/10 м
[средняя] 
+26.0  +24.0  89  +36  +36  очень
душно 
1014.9  1015.2  +23.9  +27.2  1.0   
18:53 27.09 Ю  16 км    10/10 м
[средняя] 
+27.0  +24.0  84  +37  +37  очень
душно 
1014.0  1014.2  +23.9  +27.2  1.0   
19:53 27.09 ЮЗ  16 км    10/10 м
[средняя] 
+27.2  +22.8  77  +36  +36  очень
душно 
1013.8  1014.2  +23.9  +27.2  1.0   
20:44 27.09 З  14 км    10/10 м
[средняя] 
+26.0  +23.0  84  +35  +35  очень
душно 
1014.4  1014.9  +23.9  +27.2  2.3   
21:41 27.09 З   6 км    10/5 м
[средняя] 
+25.0  +23.0  89  +33  +34  очень
душно 
1014.7  1015.2  +23.9  +27.2  2.3   
22:53 27.09 Ю  16 км    2/0 м
[средняя] 
+23.9  +22.8  94  +32  +32  очень
душно 
1014.8  1015.2  +23.9  +27.2  2.3   
23:53 27.09 штиль  16 км    ясно  +24.0  +23.0  94  +32  +32  очень
душно 
1014.5  1014.9  +23.3  +26.1  0.5   
00:53 28.09 С  16 км    5/0 м
[средняя] 
+25.0  +22.0  83  +32  +32  очень
душно 
1014.9  1015.2  +23.3  +26.1  0.5   
01:53 28.09 штиль  16 км    ясно  +25.6  +22.2  82  +33  +33  очень
душно 
1015.5  1015.9  +23.3  +26.1  0.5   
02:43 28.09 Ю  16 км    8/8 м  +24.0  +23.0  94  +32  +32  очень
душно 
1015.9  1016.2  +23.3  +26.1  0.5   
03:53 28.09 Ю  16 км    ясно  +24.0  +23.0  94  +32  +32  очень
душно 
1015.7  1015.9  +23.3  +26.1  0.5   
04:53 28.09 ЮЗ  16 км    ясно  +25.0  +22.2  84  +32  +32  очень
душно 
1015.9  1016.2  +23.3  +26.1  0.5   
05:53 28.09 ЮЗ  16 км    10/0 м
[средняя] 
+24.0  +23.0  94  +32  +32  очень
душно 
1016.1  1016.6  +23.9  +25.6  0.5   
06:53 28.09 Ю  16 км    ясно  +24.0  +22.0  89  +31  +31  очень
душно 
1016.1  1016.6  +23.9  +25.6  0.5   
07:53 28.09 ЮЗ  16 км    ясно  +25.0  +22.2  84  +32  +32  очень
душно 
1016.1  1016.6  +23.9  +25.6  0.5   
08:53 28.09 Ю  16 км  слабый дождь  ясно  +24.0  +22.0  89  +31  +31  очень
душно 
1016.2  1016.6  +23.9  +25.6  0.5   
09:53 28.09 штиль  16 км  дождь  10/10 м  +24.0  +22.0  89  +31  +31  очень
душно 
1016.6  1016.9  +23.9  +25.6  0.5   
10:28 28.09 СВ  16 км  гроза  10/10 м  +26.0  +23.0  84  +35  +35  очень
душно 
1017.1  1017.3  +23.9  +25.6  0.5   
11:18 28.09 СВ  16 км  гроза  10/10 м  +25.0  +22.0  83  +32  +32  очень
душно 
1017.6  1017.6  +25.0  +28.9  0.5   
12:53 28.09 СВ  16 км  гроза, слабый дождь  10/10 м  +25.0  +23.0  89  +33  +33  очень
душно 
1018.0  1018.3  +25.0  +28.9  0.5   
13:53 28.09 СВ  16 км  слабый дождь  8/8 м  +26.7  +23.3  82  +36  +37  очень
душно 
1018.6  1018.9  +25.0  +28.9  0.5   
14:53 28.09 СВ  16 км    5/5 м  +27.0  +23.0  79  +36  +39  очень
душно 
1018.7  1018.9  +25.0  +28.9  0.5   
15:53 28.09 С  16 км    5/5 м  +28.0  +23.0  74  +37  +41  очень
душно 
1018.8  1019.3  +25.0  +28.9  0.5   
16:53 28.09 С  16 км    ясно  +28.9  +22.8  70  +38  +43  очень
душно 
1018.3  1018.6  +25.0  +28.9  0.5   
17:53 28.09 С  16 км    5/5 м  +29.0  +24.0  74  +40  +45  очень
душно 
1017.9  1018.3  +25.6  +30.0  0.5   
18:53 28.09 С  16 км    ясно  +29.0  +23.0  70  +39  +43  очень
душно 
1017.3  1017.6  +25.6  +30.0  0.5   
19:33 28.09 С  16 км    ясно  +29.0  +23.0  70  +39  +42  очень
душно 
1017.2  1017.6  +25.6  +30.0  0.5   
20:12 28.09 С  16 км    ясно  +28.0  +23.0  74  +37  +40  очень
душно 
1017.5  1017.6  +25.6  +30.0  0.5   
21:12 28.09 С  16 км    10/10 м  +28.0  +23.0  74  +37  +37  очень
душно 
1017.9  1017.9  +25.6  +30.0  0.5   
22:12 28.09 Ю  16 км    10/10 м  +26.0  +23.0  84  +35  +35  очень
душно 
1018.0    +25.6  +30.0  0.5   
23:33 28.09 СВ  16 км    10/10 м  +27.0  +24.0  84  +37  +37  очень
душно 
1018.3  1018.6  +25.6  +27.2  0.5   
00:53 29.09 В  16 км    ясно  +26.0  +24.0  89  +36  +36  очень
душно 
1018.7  1018.9  +25.6  +27.2  0.5   

 

Местоположение метеостанции New Orleans Lakefront Airport: широта 30.0494 долгота -90.0289 высота над уровнем моря 2 м.

В архиве по умолчанию представлена погода в Новом Орлеане за последние 1-2 суток. Обновление информации о фактической погоде в базе происходит ежечасно! Архивные данные за месяц целиком и за предыдущие месяцы Вы можете получить, выбрав интересующий диапазон дат из раскрывающегося списка и нажав кнопку "Ввод!".

Внимание! Архив погоды МЕТАР в базе сайта в настоящее время начинается c 1 января 2013 г. Нет смысла пытаться выбрать более раннюю дату.

Внимание! Время в таблицах - всемирное. Для получения местного времени необходимо прибавить поправку, которая в Новом Орлеане равна -6 ч.

Ветер - указаны скорость ветра в м/с и направление, откуда дует ветер: С - северный, СВ - северо-восточный, В - восточный, ЮВ - юго-восточный, Ю - южный, ЮЗ - юго-западный, З - западный, СЗ - северо-западный.
Видимость - горизонтальная дальность видимости в метрах или километрах. При видимости от 1 до 10 км при отсутствии осадков обычно наблюдается дымка, при ухудшении видимости до 1 км и менее - туман. В сухую погоду видимость может ухудшаться дымом, пылью или мглою.
Атмосферные явления - указаны явления, наблюдавшиеся в указанный момент времени.
Облачность - указаны через наклонную черту верхняя и нижняя облачность в баллах и высота нижней границы облаков в метрах. Внимание: облачность, как и прочие метеорологические величины в США измеряются автоматическими метеостанциями. Указанные значения в баллах носят условный характер и показывают процент времени, в течение которого, в среднем, лазерный луч высотомера отражался от облаков обратно.
T - Температура воздуха - температура, измеренная на высоте 2 м над землей.
Td - Температура точки росы - температура, при понижении до которой содержащийся в воздухе водяной пар достигнет насыщения.
f - Относительная влажность воздуха - влажноcть воздуха, измеренная на высоте 2 м над землей.
Te - Эффективная температура - температура, которую ощущает одетый по сезону человек в тени. Характеристика душности погоды. При расчете учитывается влияние влажности воздуха и скорости ветра на теплоощущения человека.
Tes - Эффективная температура на солнце - температура, которую ощущает человек, с поправкой на солнечный нагрев. Характеристика знойности погоды. Зависит от высоты солнца над горизонтом, облачности и скорости ветра. Ночью, в пасмурную погоду, а также при ветре 12 м/с и более поправка равна нулю.
P - Атмосферное давление - приведенное к уровню моря атмосферное давление.
Po - Атмосферное давление - измеренное на уровне метеостанции атмосферное давление.
Tmin - Минимальная температура - минимум температуры воздуха на высоте 2 м над землей.
Tmax - Максимальная температура - максимум температуры воздуха на высоте 2 м над землей.
R - Количество осадков - Количество выпавших осадков за 3 или 6 часов, мм.
SD - Снежный покров - Высота снежного покрова, см.